SHT3H EGCC-EGLL

Flight info

Callsign SHT3H
Flight time 0h 29m
Altitude 19000
Route LISTO L612 HON
Aircraft A320/M-SDE3FGHIRWY/LB1

Departure

Time 2026-05-06 21:28
Airport Manchester Airport (EGCC)

Arrival

Time 2026-05-06 21:57
Airport London Heathrow Airport (EGLL)
Time Latitude Longitude Altitude Speed Heading
2026-05-06 21:03 53.35948 -2.27129 248 ft 0 kts 89°
2026-05-06 21:18 53.35948 -2.27148 247 ft 4 kts 89°
2026-05-06 21:18 53.35948 -2.27192 247 ft 4 kts 101°
2026-05-06 21:19 53.35958 -2.27229 247 ft 4 kts 145°
2026-05-06 21:19 53.35976 -2.27240 247 ft 1 kts 179°
2026-05-06 21:19 53.35980 -2.27241 247 ft 0 kts 179°
2026-05-06 21:21 53.35978 -2.27241 247 ft 1 kts 179°
2026-05-06 21:21 53.35962 -2.27240 247 ft 3 kts 178°
2026-05-06 21:22 53.35930 -2.27235 247 ft 6 kts 171°
2026-05-06 21:22 53.35882 -2.27224 247 ft 8 kts 172°
2026-05-06 21:22 53.35825 -2.27246 247 ft 10 kts 233°
2026-05-06 21:22 53.35775 -2.27348 247 ft 13 kts 232°
2026-05-06 21:23 53.35716 -2.27472 248 ft 15 kts 231°
2026-05-06 21:23 53.35643 -2.27617 247 ft 17 kts 226°
2026-05-06 21:23 53.35550 -2.27769 247 ft 20 kts 224°
2026-05-06 21:23 53.35443 -2.27943 245 ft 24 kts 224°
2026-05-06 21:24 53.35316 -2.28148 239 ft 28 kts 224°
2026-05-06 21:24 53.35213 -2.28339 234 ft 22 kts 231°
2026-05-06 21:24 53.35112 -2.28549 231 ft 25 kts 231°
2026-05-06 21:24 53.35004 -2.28759 230 ft 21 kts 225°
2026-05-06 21:25 53.34894 -2.28953 224 ft 26 kts 226°
2026-05-06 21:25 53.34788 -2.29150 214 ft 23 kts 230°
2026-05-06 21:25 53.34695 -2.29316 212 ft 18 kts 211°
2026-05-06 21:25 53.34601 -2.29336 214 ft 14 kts 168°
2026-05-06 21:26 53.34542 -2.29246 211 ft 10 kts 94°
2026-05-06 21:26 53.34578 -2.29142 209 ft 8 kts 52°
2026-05-06 21:26 53.34588 -2.29121 210 ft 0 kts 51°
2026-05-06 21:27 53.34623 -2.29048 212 ft 31 kts 51°
2026-05-06 21:27 53.34900 -2.28475 236 ft 92 kts 51°
2026-05-06 21:27 53.35413 -2.27415 259 ft 139 kts 51°
2026-05-06 21:27 53.36056 -2.26077 590 ft 150 kts 50°
2026-05-06 21:28 53.36707 -2.24728 1248 ft 147 kts 55°
2026-05-06 21:28 53.37336 -2.23400 1774 ft 146 kts 60°
2026-05-06 21:28 53.37732 -2.21777 1980 ft 160 kts 87°
2026-05-06 21:28 53.37536 -2.19837 2171 ft 181 kts 117°
2026-05-06 21:29 53.36679 -2.18123 2438 ft 206 kts 143°
2026-05-06 21:29 53.35376 -2.16820 2841 ft 231 kts 158°
2026-05-06 21:29 53.33721 -2.16561 3376 ft 250 kts 188°
2026-05-06 21:29 53.31989 -2.17076 4202 ft 255 kts 189°
2026-05-06 21:30 53.30204 -2.17461 5054 ft 261 kts 188°
2026-05-06 21:30 53.28379 -2.17770 5864 ft 267 kts 188°
2026-05-06 21:30 53.26507 -2.18054 6659 ft 273 kts 187°
2026-05-06 21:30 53.24597 -2.18335 7444 ft 277 kts 188°
2026-05-06 21:31 53.22663 -2.18621 8246 ft 281 kts 186°
2026-05-06 21:31 53.20696 -2.18920 9036 ft 285 kts 186°
2026-05-06 21:31 53.18703 -2.19226 9817 ft 290 kts 187°
2026-05-06 21:31 53.16698 -2.19520 10402 ft 300 kts 184°
2026-05-06 21:32 53.14531 -2.19376 10581 ft 325 kts 173°
2026-05-06 21:32 53.10007 -2.16902 11333 ft 354 kts 158°
2026-05-06 21:32 53.07728 -2.15308 12019 ft 356 kts 159°
2026-05-06 21:33 53.05431 -2.13718 12690 ft 360 kts 159°
2026-05-06 21:33 53.03108 -2.12120 13350 ft 364 kts 159°
2026-05-06 21:33 53.00757 -2.10507 14005 ft 367 kts 159°
2026-05-06 21:33 52.98383 -2.08878 14588 ft 370 kts 159°
2026-05-06 21:34 52.95993 -2.07238 15158 ft 374 kts 159°
2026-05-06 21:34 52.93581 -2.05583 15734 ft 376 kts 159°
2026-05-06 21:34 52.91155 -2.03922 16317 ft 379 kts 159°
2026-05-06 21:34 52.88714 -2.02248 16909 ft 381 kts 159°
2026-05-06 21:35 52.86252 -2.00558 17497 ft 384 kts 159°
2026-05-06 21:35 52.83773 -1.98856 18119 ft 387 kts 159°
2026-05-06 21:35 52.81272 -1.97143 18676 ft 390 kts 159°
2026-05-06 21:35 52.78785 -1.95447 18974 ft 392 kts 159°
2026-05-06 21:36 52.76245 -1.93720 19049 ft 401 kts 159°
2026-05-06 21:36 52.73619 -1.91938 19045 ft 412 kts 159°
2026-05-06 21:36 52.70961 -1.90135 19051 ft 414 kts 159°
2026-05-06 21:36 52.68294 -1.88327 19057 ft 415 kts 159°
2026-05-06 21:37 52.65620 -1.86516 19055 ft 415 kts 159°
2026-05-06 21:37 52.62948 -1.84705 19052 ft 415 kts 159°
2026-05-06 21:37 52.60280 -1.82897 19056 ft 415 kts 159°
2026-05-06 21:37 52.57610 -1.81093 19055 ft 415 kts 159°
2026-05-06 21:38 52.54941 -1.79297 19053 ft 415 kts 159°
2026-05-06 21:38 52.52270 -1.77504 19058 ft 415 kts 159°
2026-05-06 21:38 52.49598 -1.75710 19050 ft 415 kts 159°
2026-05-06 21:38 52.46927 -1.73916 19053 ft 414 kts 159°
2026-05-06 21:39 52.44259 -1.72125 19049 ft 414 kts 159°
2026-05-06 21:39 52.41588 -1.70336 19051 ft 414 kts 159°
2026-05-06 21:39 52.38922 -1.68551 19049 ft 414 kts 159°
2026-05-06 21:39 52.36310 -1.66556 19052 ft 415 kts 151°
2026-05-06 21:40 52.34698 -1.64867 19050 ft 416 kts 145°
2026-05-06 21:40 52.32468 -1.61851 19042 ft 416 kts 140°
2026-05-06 21:40 52.30277 -1.58744 19049 ft 417 kts 140°
2026-05-06 21:40 52.28083 -1.55650 19044 ft 417 kts 140°
2026-05-06 21:41 52.25883 -1.52561 19041 ft 417 kts 140°
2026-05-06 21:41 52.23688 -1.49480 19046 ft 417 kts 140°
2026-05-06 21:41 52.21493 -1.46397 19051 ft 417 kts 140°
2026-05-06 21:41 52.19291 -1.43315 19051 ft 417 kts 140°
2026-05-06 21:42 52.17088 -1.40237 19052 ft 417 kts 140°
2026-05-06 21:42 52.14882 -1.37156 19052 ft 416 kts 140°
2026-05-06 21:42 52.12715 -1.34132 18855 ft 405 kts 140°
2026-05-06 21:42 52.10599 -1.31190 18613 ft 395 kts 140°
2026-05-06 21:43 52.08539 -1.28327 18372 ft 385 kts 140°
2026-05-06 21:43 52.06512 -1.25511 18100 ft 381 kts 140°
2026-05-06 21:43 52.04502 -1.22722 17819 ft 379 kts 140°
2026-05-06 21:43 52.02500 -1.19947 17539 ft 378 kts 140°
2026-05-06 21:44 52.00500 -1.17182 17029 ft 376 kts 140°
2026-05-06 21:44 51.98511 -1.14439 16505 ft 373 kts 140°
2026-05-06 21:44 51.96539 -1.11720 15981 ft 371 kts 140°
2026-05-06 21:44 51.94583 -1.09020 15474 ft 368 kts 140°
2026-05-06 21:45 51.92650 -1.06352 14852 ft 360 kts 140°
2026-05-06 21:45 51.90771 -1.03768 14237 ft 349 kts 140°
2026-05-06 21:45 51.88943 -1.01256 13613 ft 340 kts 140°
2026-05-06 21:45 51.87161 -0.98810 12942 ft 332 kts 140°
2026-05-06 21:46 51.85522 -0.96305 12300 ft 326 kts 128°
2026-05-06 21:46 51.84357 -0.93209 11644 ft 319 kts 116°
2026-05-06 21:46 51.83387 -0.90019 11068 ft 313 kts 116°
2026-05-06 21:46 51.82438 -0.86901 10572 ft 305 kts 116°
2026-05-06 21:47 51.81514 -0.83869 10090 ft 298 kts 116°
2026-05-06 21:47 51.80606 -0.80901 9775 ft 291 kts 116°
2026-05-06 21:47 51.79712 -0.77992 9505 ft 287 kts 115°
2026-05-06 21:47 51.78830 -0.75121 9235 ft 283 kts 115°
2026-05-06 21:48 51.77960 -0.72292 8969 ft 279 kts 115°
2026-05-06 21:48 51.77102 -0.69500 8707 ft 276 kts 116°
2026-05-06 21:48 51.76251 -0.66744 8443 ft 273 kts 116°
2026-05-06 21:48 51.75408 -0.64020 8191 ft 270 kts 116°
2026-05-06 21:49 51.74573 -0.61325 7920 ft 267 kts 115°
2026-05-06 21:49 51.73666 -0.58707 7534 ft 269 kts 129°
2026-05-06 21:49 51.72151 -0.57005 7180 ft 269 kts 164°
2026-05-06 21:49 51.70306 -0.56944 6785 ft 268 kts 198°
2026-05-06 21:50 51.68600 -0.58164 6423 ft 269 kts 207°
2026-05-06 21:50 51.66925 -0.59526 6021 ft 271 kts 207°
2026-05-06 21:50 51.65243 -0.60911 5617 ft 269 kts 207°
2026-05-06 21:50 51.63603 -0.62256 5228 ft 260 kts 207°
2026-05-06 21:51 51.62034 -0.63534 4854 ft 252 kts 207°
2026-05-06 21:51 51.60508 -0.64769 4585 ft 239 kts 207°
2026-05-06 21:51 51.59027 -0.65965 4325 ft 238 kts 207°
2026-05-06 21:51 51.57535 -0.67168 4057 ft 235 kts 207°
2026-05-06 21:52 51.56094 -0.68327 3803 ft 235 kts 207°
2026-05-06 21:52 51.54634 -0.69506 3550 ft 234 kts 207°
2026-05-06 21:52 51.53185 -0.70673 3295 ft 232 kts 207°
2026-05-06 21:52 51.51749 -0.71830 3058 ft 228 kts 207°
2026-05-06 21:53 51.50282 -0.72598 2915 ft 219 kts 180°
2026-05-06 21:53 51.48876 -0.72015 2879 ft 207 kts 146°
2026-05-06 21:53 51.47918 -0.70376 2776 ft 201 kts 114°
2026-05-06 21:53 51.47639 -0.68231 2578 ft 196 kts 88°
2026-05-06 21:54 51.47655 -0.66051 2335 ft 194 kts 87°
2026-05-06 21:54 51.47672 -0.63920 2076 ft 186 kts 87°
2026-05-06 21:54 51.47684 -0.61910 1806 ft 174 kts 87°
2026-05-06 21:54 51.47693 -0.60084 1595 ft 154 kts 87°
2026-05-06 21:55 51.47702 -0.58421 1381 ft 146 kts 87°
2026-05-06 21:55 51.47711 -0.56824 1163 ft 142 kts 86°
2026-05-06 21:55 51.47718 -0.55246 977 ft 141 kts 88°
2026-05-06 21:55 51.47723 -0.53674 766 ft 140 kts 88°
2026-05-06 21:56 51.47727 -0.52136 599 ft 139 kts 87°
2026-05-06 21:56 51.47732 -0.50585 413 ft 139 kts 87°
2026-05-06 21:56 51.47740 -0.49039 206 ft 139 kts 87°
2026-05-06 21:56 51.47751 -0.47510 88 ft 129 kts 88°
2026-05-06 21:57 51.47758 -0.46342 88 ft 80 kts 90°
2026-05-06 21:57 51.47760 -0.45722 84 ft 31 kts 89°
2026-05-06 21:57 51.47746 -0.45518 87 ft 17 kts 118°
2026-05-06 21:57 51.47640 -0.45470 86 ft 13 kts 180°
2026-05-06 21:58 51.47596 -0.45556 91 ft 12 kts 268°
2026-05-06 21:58 51.47595 -0.45703 88 ft 14 kts 270°
2026-05-06 21:58 51.47595 -0.45879 90 ft 17 kts 270°
2026-05-06 21:58 51.47594 -0.46084 87 ft 20 kts 270°
2026-05-06 21:59 51.47594 -0.46317 87 ft 22 kts 269°
2026-05-06 21:59 51.47592 -0.46577 87 ft 25 kts 270°
2026-05-06 21:59 51.47590 -0.46813 87 ft 16 kts 264°
2026-05-06 21:59 51.47582 -0.47003 87 ft 18 kts 269°
2026-05-06 22:00 51.47582 -0.47224 89 ft 21 kts 270°
2026-05-06 22:00 51.47581 -0.47474 87 ft 24 kts 269°
2026-05-06 22:00 51.47580 -0.47751 90 ft 26 kts 270°
2026-05-06 22:00 51.47578 -0.48015 88 ft 18 kts 270°
2026-05-06 22:01 51.47578 -0.48212 88 ft 17 kts 269°
2026-05-06 22:01 51.47577 -0.48409 89 ft 12 kts 269°
2026-05-06 22:01 51.47527 -0.48479 88 ft 12 kts 181°
2026-05-06 22:01 51.47428 -0.48477 87 ft 16 kts 180°
2026-05-06 22:02 51.47306 -0.48477 87 ft 19 kts 179°
2026-05-06 22:02 51.47186 -0.48475 87 ft 14 kts 179°
2026-05-06 22:02 51.47102 -0.48478 87 ft 9 kts 197°
2026-05-06 22:02 51.47087 -0.48578 88 ft 7 kts 269°
2026-05-06 22:03 51.47086 -0.48588 87 ft 0 kts 270°